Location: Cincinnati Observatory Center
(39.1389°N, 84.4225°W)
Time: 18:05:13
(UTC-05:00)

Amateur Radio Satellites - All Passes

Search period start: 02 March 2015 17:35
Search period end: 03 March 2015 17:35
Location: Cincinnati Observatory Center, 39.1389°N, 84.4225°W

Satellite Date Start Highest point End Downlink Frequencies (MHz)
Time Altitude Azimuth
PHONESAT 2.4 02 Mar 17:38:02 17:40:24 17° 147° (SSE) 17:42:50 2401.200-2431.200
M-CUBED/EXP-1 PRIME 02 Mar 17:44:27 17:48:35 50° 290° (WNW) 17:53:00 437.505
BEESAT 3 02 Mar 17:45:01 17:49:06 82° 120° (ESE) 17:53:15 437.485
AUBIESAT-1 02 Mar 17:46:33 17:50:43 53° 290° (WNW) 17:55:10 437.475
JAS-2 02 Mar 17:58:12 18:01:10 14° 275° (W) 18:03:55 435.910
AIST 2 02 Mar 18:06:59 18:11:00 43° 116° (ESE) 18:15:06 435.215
MOZHAYETS 4 02 Mar 18:07:07 18:11:25 38° 288° (WNW) 18:15:41
BEESAT 2 02 Mar 18:10:24 18:14:29 62° 303° (WNW) 18:18:37 435.950
CUBESAT XI-V 02 Mar 18:28:44 18:32:42 27° 94° (E) 18:36:42 437.345
STRAND 1 02 Mar 18:31:31 18:34:50 18° 91° (E) 18:38:19 437.568
Cubesat XI-IV 02 Mar 18:38:54 18:44:06 49° 261° (W) 18:49:19 437.490
CUTE-I 02 Mar 18:48:07 18:53:11 40° 262° (W) 18:58:13 437.470
HO-68 02 Mar 18:52:05 18:56:11 17° 57° (ENE) 19:00:37 435.675
O/OREOS (USA 219) 02 Mar 19:01:42 19:05:42 29° 60° (ENE) 19:09:42 437.305
YUBILEINY 02 Mar 19:01:48 19:07:07 16° 301° (WNW) 19:11:56 435.215
AIST 1 02 Mar 19:04:40 19:09:04 69° 265° (W) 19:13:24
VERMONT LUNAR 02 Mar 19:12:01 19:15:31 88° 337° (NNW) 19:19:02 437.305
PHONESAT 2.4 02 Mar 19:14:52 19:18:29 64° 161° (SSE) 19:22:06 2401.200-2431.200
PRISM 02 Mar 19:15:57 19:20:13 89° 289° (WNW) 19:24:26 437.425
BRITE-PL 02 Mar 19:20:24 19:24:46 24° 68° (ENE) 19:29:08 437.365/2234.400
BEESAT 3 02 Mar 19:26:04 19:27:49 12° 319° (NW) 19:29:25 437.485
GOMX 1 02 Mar 19:26:41 19:30:09 18° 67° (ENE) 19:33:42 467.674
SEEDS 02 Mar 19:30:23 19:30:58 10° 65° (ENE) 19:31:48 437.485
CANX-2 02 Mar 19:31:41 19:33:58 15° 67° (ENE) 19:36:24 2200.000
AIST 2 02 Mar 19:46:36 19:49:50 20° 314° (NW) 19:53:01 435.215
CUTE 1.7 + AOD 2 02 Mar 19:49:22 19:52:29 21° 69° (ENE) 19:55:42 437.475
DOVE 4 02 Mar 20:01:07 20:05:16 26° 70° (ENE) 20:09:22 437.250
CUBESAT XI-V 02 Mar 20:06:02 20:10:08 29° 290° (WNW) 20:14:08 437.345
STRAND 1 02 Mar 20:09:24 20:14:25 52° 288° (WNW) 20:19:22 437.568
CINEMA 3 02 Mar 20:10:55 20:13:50 17° 68° (ENE) 20:16:50 145.822/145.860
Oscar 11 02 Mar 20:26:03 20:28:38 16° 67° (ENE) 20:31:22 145.826/435.025
CUBEBUG 2 02 Mar 20:32:25 20:34:48 15° 67° (ENE) 20:37:21 437.445
AAUSAT CUBESAT 2 02 Mar 20:32:36 20:36:25 37° 73° (ENE) 20:40:17 437.432
COMPASS 1 02 Mar 20:34:59 20:38:57 46° 74° (ENE) 20:42:58 437.405
HO-68 02 Mar 20:35:55 20:43:03 88° 74° (ENE) 20:50:16 435.675
O/OREOS (USA 219) 02 Mar 20:41:12 20:45:03 26° 257° (WSW) 20:48:47 437.305
VERMONT LUNAR 02 Mar 20:50:03 20:53:33 70° 5° (N) 20:57:02 437.305
DX 1 02 Mar 20:50:21 20:52:52 16° 66° (ENE) 20:55:33 434.975-435.025
PCSat 02 Mar 20:51:24 20:56:41 59° 114° (ESE) 21:02:02 145.827
PHONESAT 2.4 02 Mar 20:53:20 20:56:59 69° 358° (N) 21:00:37 2401.200-2431.200
BRITE-PL 02 Mar 20:57:35 21:03:02 46° 262° (W) 21:08:17 437.365/2234.400
SEEDS 02 Mar 21:02:09 21:06:19 66° 259° (W) 21:10:29 437.485
GOMX 1 02 Mar 21:02:35 21:07:56 57° 260° (W) 21:13:02 467.674
CANX-2 02 Mar 21:05:32 21:09:35 45° 262° (W) 21:13:38 2200.000
FUNcube-1 02 Mar 21:09:47 21:13:14 24° 70° (ENE) 21:16:43 145.935
ZACube-1 02 Mar 21:10:56 21:14:28 25° 70° (ENE) 21:18:03 437.345
GONETS M04 02 Mar 21:14:22 21:21:13 28° 84° (E) 21:28:20
HUMSAT D 02 Mar 21:15:40 21:17:51 14° 67° (ENE) 21:20:11 437.325/437.525
UKube-1 02 Mar 21:18:34 21:22:18 29° 70° (ENE) 21:26:06 .
CUTE 1.7 + AOD 2 02 Mar 21:24:31 21:28:16 30° 264° (W) 21:32:00 437.475
UWE-3 02 Mar 21:29:17 21:33:35 49° 74° (ENE) 21:37:48 435.000/436.395/437.385
DOVE 4 02 Mar 21:38:09 21:42:55 35° 263° (W) 21:47:26 437.250
DELFI C3 02 Mar 21:40:07 21:44:09 87° 78° (ENE) 21:48:13 145.870
CINEMA 3 02 Mar 21:46:04 21:50:45 49° 261° (W) 21:55:15 145.822/145.860
RS-15 02 Mar 21:46:24 21:51:58 17° 101° (E) 21:58:23 29.354- 29.394
Oscar 11 02 Mar 22:00:26 22:04:32 42° 262° (W) 22:08:38 145.826/435.025
CUBEBUG 2 02 Mar 22:06:45 22:11:11 51° 261° (W) 22:15:29 437.445
AAUSAT CUBESAT 2 02 Mar 22:09:38 22:12:17 16° 269° (W) 22:14:46 437.432
ANTELSAT 02 Mar 22:10:02 22:11:54 13° 90° (E) 22:14:01 437.575/2403.000
COMPASS 1 02 Mar 22:12:58 22:15:00 13° 270° (W) 22:16:49 437.405
DX 1 02 Mar 22:24:32 22:28:47 47° 261° (W) 22:33:02 434.975-435.025
AISAT 02 Mar 22:27:43 22:32:13 72° 75° (ENE) 22:36:43 437.250
HO-68 02 Mar 22:27:49 22:31:50 15° 272° (W) 22:35:23 435.675
VERMONT LUNAR 02 Mar 22:28:02 22:31:27 51° 201° (SSW) 22:34:49 437.305
POLYITAN 1 02 Mar 22:30:40 22:31:58 11° 89° (E) 22:33:31 437.675
POPSAT HIP 1 02 Mar 22:31:12 22:32:28 11° 89° (E) 22:33:59 437.405
CUBEBUG 1 02 Mar 22:31:41 22:35:36 32° 71° (ENE) 22:39:35 437.445
PHONESAT 2.4 02 Mar 22:31:53 22:35:32 81° 197° (SSW) 22:39:09 2401.200-2431.200
PCSat 02 Mar 22:36:23 22:40:33 21° 313° (NW) 22:44:37 145.827
VELOX 1 02 Mar 22:37:12 22:41:42 88° 77° (ENE) 22:46:13 145.980
50 SAT 02 Mar 22:45:34 22:49:33 73° 258° (WSW) 22:53:32 437.505
FUNcube-1 02 Mar 22:45:42 22:49:31 28° 264° (W) 22:53:12 145.935
ZACube-1 02 Mar 22:47:02 22:50:48 27° 265° (W) 22:54:26 437.345
HUMSAT D 02 Mar 22:49:15 22:53:20 46° 261° (W) 22:57:21 437.325/437.525
NANOSAT C BR1 02 Mar 22:52:47 22:55:57 21° 93° (E) 22:59:12 145.865
ESTCUBE 1 02 Mar 22:53:02 22:57:29 61° 74° (ENE) 23:01:59 437.505/2401.250
CUSAT 1 02 Mar 22:54:04 22:54:46 10° 92° (E) 22:55:53 437.405
UKube-1 02 Mar 22:54:56 22:58:28 23° 265° (W) 23:01:56 .
SPROUT 02 Mar 23:04:43 23:07:37 18° 68° (ENE) 23:10:39 437.525
UNISAT 6 02 Mar 23:06:06 23:10:21 57° 100° (E) 23:14:38 437.425
UWE-3 02 Mar 23:08:03 23:10:26 14° 269° (W) 23:12:36 435.000/436.395/437.385
TISAT 1 02 Mar 23:08:24 23:11:15 18° 68° (ENE) 23:14:14 437.305
GONETS M04 02 Mar 23:09:02 23:17:35 59° 282° (WNW) 23:26:07
QB50P1 02 Mar 23:24:56 23:29:03 50° 99° (E) 23:33:09 145.935-145.965
QB50P2 02 Mar 23:28:46 23:32:56 57° 100° (E) 23:37:05 145.880/145.840
TIGRISAT 02 Mar 23:31:09 23:35:26 75° 284° (WNW) 23:39:44 435.000
BUGSAT 1 02 Mar 23:34:57 23:38:58 47° 99° (E) 23:42:56 437.445
DUCHIFAT 1 02 Mar 23:43:45 23:47:59 83° 100° (E) 23:52:11 145.980
ANTELSAT 02 Mar 23:44:54 23:49:05 50° 286° (WNW) 23:53:17 437.575/2403.000
RS-15 02 Mar 23:51:56 00:02:49 81° 118° (ESE) 00:13:52 29.354- 29.394
DANDE 03 Mar 00:01:57 00:08:29 43° 96° (E) 00:13:35 436.750
POLYITAN 1 03 Mar 00:04:12 00:08:21 54° 285° (WNW) 00:12:26 437.675
POPSAT HIP 1 03 Mar 00:04:40 00:08:48 54° 286° (WNW) 00:12:53 437.405
VERMONT LUNAR 03 Mar 00:07:29 00:08:53 12° 215° (SW) 00:10:13 437.305
CUBEBUG 1 03 Mar 00:08:32 00:12:02 22° 266° (W) 00:15:27 437.445
PHONESAT 2.4 03 Mar 00:10:47 00:13:43 23° 210° (SSW) 00:16:36 2401.200-2431.200
SWISSCUBE 03 Mar 00:24:39 00:28:16 23° 67° (ENE) 00:32:01 437.505
NANOSAT C BR1 03 Mar 00:28:10 00:31:52 30° 289° (WNW) 00:35:31 145.865
CUSAT 1 03 Mar 00:31:05 00:37:38 89° 270° (W) 00:42:32 437.405
BEESAT 03 Mar 00:33:02 00:36:51 25° 68° (ENE) 00:40:46 436.000
ESTCUBE 1 03 Mar 00:33:06 00:34:52 12° 271° (W) 00:36:21 437.505/2401.250
SPROUT 03 Mar 00:39:24 00:43:28 38° 263° (W) 00:47:31 437.525
TISAT 1 03 Mar 00:42:49 00:46:49 37° 262° (W) 00:50:49 437.305
UNISAT 6 03 Mar 00:44:49 00:46:45 12° 294° (WNW) 00:48:28 437.425
SO-50 03 Mar 00:57:03 00:59:54 17° 110° (ESE) 01:03:00 436.795
ITUPSAT 1 03 Mar 00:59:40 01:04:12 45° 72° (ENE) 01:08:48 437.325
QB50P1 03 Mar 01:02:22 01:04:34 14° 294° (WNW) 01:06:35 145.935-145.965
QB50P2 03 Mar 01:06:37 01:08:26 12° 295° (WNW) 01:10:02 145.880/145.840
BUGSAT 1 03 Mar 01:11:53 01:14:06 14° 294° (WNW) 01:16:08 437.445
DANDE 03 Mar 01:46:12 01:51:50 27° 285° (WNW) 01:56:15 436.750
Oscar 19 03 Mar 01:49:19 01:54:16 48° 99° (E) 01:59:13 437.125/150
ITAMSAT 1 03 Mar 01:49:38 01:52:31 15° 90° (E) 01:55:40 435.822/435.867
SWISSCUBE 03 Mar 02:01:31 02:05:57 37° 263° (W) 02:10:23 437.505
BEESAT 3 03 Mar 02:05:30 02:09:18 35° 52° (NE) 02:13:05 437.485
RS-15 03 Mar 02:06:57 02:16:33 33° 324° (NW) 02:26:10 29.354- 29.394
BEESAT 03 Mar 02:10:16 02:14:35 33° 264° (W) 02:18:52 436.000
KKS-1 03 Mar 02:17:26 02:21:49 57° 74° (ENE) 02:26:15 437.445
STARS 03 Mar 02:23:30 02:27:41 42° 72° (ENE) 02:31:53 437.465
AIST 2 03 Mar 02:30:13 02:33:38 23° 48° (NE) 02:37:02 435.215
BEESAT 2 03 Mar 02:31:07 02:35:13 55° 56° (NE) 02:39:15 435.950
SO-50 03 Mar 02:35:35 02:40:04 51° 306° (NW) 02:44:43 436.795
ITUPSAT 1 03 Mar 02:39:06 02:42:24 18° 269° (W) 02:45:32 437.325
M-CUBED/EXP-1 PRIME 03 Mar 03:00:49 03:02:04 12° 61° (ENE) 03:03:29 437.505
Gurwin Techsat 1B 03 Mar 03:01:01 03:06:16 58° 100° (E) 03:11:30 435.225
AUBIESAT-1 03 Mar 03:02:52 03:03:49 11° 61° (ENE) 03:04:56 437.475
YUBILEINY 03 Mar 03:11:38 03:20:03 47° 75° (ENE) 03:28:30 435.215
JAS-2 03 Mar 03:21:41 03:24:30 13° 84° (E) 03:28:01 435.910
ITAMSAT 1 03 Mar 03:27:22 03:32:31 60° 287° (WNW) 03:37:38 435.822/435.867
AO-7 03 Mar 03:29:16 03:34:57 21° 91° (E) 03:41:02 29.400- 29.500
Oscar 19 03 Mar 03:29:35 03:33:19 20° 294° (WNW) 03:36:53 437.125/150
MOZHAYETS 4 03 Mar 03:32:23 03:35:14 17° 67° (ENE) 03:38:16
BEESAT 3 03 Mar 03:44:07 03:47:12 20° 248° (WSW) 03:50:09 437.485
KKS-1 03 Mar 03:56:54 03:58:55 12° 271° (W) 04:00:41 437.445
STARS 03 Mar 04:01:29 04:04:24 16° 268° (W) 04:07:08 437.465
AIST 2 03 Mar 04:08:26 04:12:20 35° 245° (WSW) 04:16:09 435.215
BEESAT 2 03 Mar 04:11:07 04:12:58 12° 250° (WSW) 04:14:37 435.950
HORYU 2 03 Mar 04:13:03 04:17:31 84° 102° (ESE) 04:21:59 437.375
JUGNU 03 Mar 04:26:29 04:28:04 11° 181° (S) 04:29:39 437.505
RS-15 03 Mar 04:27:04 04:33:53 17° 358° (N) 04:40:49 29.354- 29.394
M-CUBED/EXP-1 PRIME 03 Mar 04:33:41 04:36:45 34° 257° (WSW) 04:39:53 437.505
AUBIESAT-1 03 Mar 04:35:17 04:38:24 38° 257° (WSW) 04:41:36 437.475
Gurwin Techsat 1B 03 Mar 04:42:15 04:45:50 18° 296° (WNW) 04:49:13 435.225
JAS-2 03 Mar 05:03:11 05:10:42 75° 102° (ESE) 05:18:35 435.910
MOZHAYETS 4 03 Mar 05:07:47 05:12:10 45° 262° (W) 05:16:34
YUBILEINY 03 Mar 05:08:49 05:16:43 37° 273° (W) 05:24:24 435.215
AO-7 03 Mar 05:20:23 05:28:41 78° 290° (WNW) 05:36:56 29.400- 29.500
CUBESAT XI-V 03 Mar 05:31:25 05:35:05 24° 69° (ENE) 05:38:54 437.345
PCSat 03 Mar 05:40:31 05:45:32 37° 54° (NE) 05:50:34 145.827
STRAND 1 03 Mar 05:46:14 05:50:13 24° 67° (ENE) 05:54:21 437.568
PRISM 03 Mar 06:05:11 06:09:14 56° 74° (ENE) 06:13:20 437.425
SRMSAT 03 Mar 06:17:12 06:18:46 11° 183° (S) 06:20:18 437.500
RS-15 03 Mar 06:42:13 06:51:34 29° 32° (NNE) 07:01:31 29.354- 29.394
JAS-2 03 Mar 06:49:28 06:55:11 24° 297° (WNW) 07:00:52 435.910
Cubesat XI-IV 03 Mar 06:57:07 07:02:31 75° 102° (ESE) 07:07:52 437.490
CUTE-I 03 Mar 07:05:59 07:11:23 88° 96° (E) 07:16:44 437.470
CUBESAT XI-V 03 Mar 07:08:09 07:12:24 33° 264° (W) 07:16:39 437.345
AO-7 03 Mar 07:15:16 07:20:21 17° 308° (NW) 07:25:01 29.400- 29.500
PCSat 03 Mar 07:24:10 07:28:51 29° 251° (WSW) 07:33:25 145.827
STRAND 1 03 Mar 07:24:24 07:29:14 40° 262° (W) 07:34:04 437.568
GONETS M04 03 Mar 07:27:11 07:30:02 12° 56° (NE) 07:33:36
AIST 1 03 Mar 07:32:42 07:37:02 74° 95° (E) 07:41:25
PRISM 03 Mar 07:44:02 07:45:12 11° 271° (W) 07:46:05 437.425
HO-68 03 Mar 08:06:41 08:10:56 17° 89° (E) 08:15:35 435.675
Cubesat XI-IV 03 Mar 08:39:07 08:42:03 15° 298° (WNW) 08:44:45 437.490
SEEDS 03 Mar 08:48:26 08:51:40 22° 93° (E) 08:55:01 437.485
CUTE-I 03 Mar 08:48:37 08:50:47 12° 299° (WNW) 08:52:40 437.470
CANX-2 03 Mar 08:52:06 08:55:54 31° 96° (E) 08:59:45 2200.000
RS-15 03 Mar 08:54:24 09:05:56 85° 58° (ENE) 09:17:59 29.354- 29.394
BRITE-PL 03 Mar 09:04:22 09:08:53 67° 101° (E) 09:13:06 437.365/2234.400
GOMX 1 03 Mar 09:06:29 09:10:39 44° 98° (E) 09:14:39 467.674
ISS 03 Mar 09:07:57 09:11:10 75° 140° (SE) 09:14:24 145.825
ANTELSAT 03 Mar 09:09:33 09:10:45 11° 65° (ENE) 09:12:13 437.575/2403.000
CUTE 1.7 + AOD 2 03 Mar 09:10:25 09:14:31 46° 99° (E) 09:18:38 437.475
O/OREOS (USA 219) 03 Mar 09:12:33 09:16:46 40° 106° (ESE) 09:21:05 437.305
GONETS M04 03 Mar 09:20:18 09:29:01 68° 79° (E) 09:37:47
DELFI C3 03 Mar 09:22:55 09:24:48 13° 90° (E) 09:26:54 145.870
SO-50 03 Mar 09:28:38 09:31:40 16° 41° (NE) 09:34:52 436.795
DOVE 4 03 Mar 09:38:33 09:42:48 71° 101° (E) 09:46:55 437.250
CINEMA 3 03 Mar 09:42:28 09:46:22 38° 97° (E) 09:50:15 145.822/145.860
NANOSAT C BR1 03 Mar 09:45:26 09:47:50 15° 67° (ENE) 09:50:24 145.865
Oscar 11 03 Mar 09:48:51 09:52:49 35° 97° (E) 09:56:49 145.826/435.025
AAUSAT CUBESAT 2 03 Mar 09:52:03 09:56:16 86° 102° (ESE) 10:00:28 437.432
HO-68 03 Mar 09:52:20 09:59:33 80° 288° (WNW) 10:06:44 435.675
COMPASS 1 03 Mar 09:55:07 09:59:20 75° 284° (WNW) 10:03:32 437.405
CUBEBUG 2 03 Mar 09:59:18 10:03:02 32° 96° (E) 10:06:49 437.445
UNISAT 6 03 Mar 10:04:11 10:08:22 44° 74° (ENE) 10:12:32 437.425
DX 1 03 Mar 10:14:16 10:18:07 30° 96° (E) 10:21:59 434.975-435.025
QB50P1 03 Mar 10:16:49 10:20:40 33° 71° (ENE) 10:24:32 145.935-145.965
QB50P2 03 Mar 10:20:46 10:24:42 37° 72° (ENE) 10:28:42 145.880/145.840
AISAT 03 Mar 10:21:24 10:23:50 15° 91° (E) 10:26:28 437.250
SEEDS 03 Mar 10:23:51 10:27:32 29° 289° (WNW) 10:31:11 437.485
BUGSAT 1 03 Mar 10:24:07 10:27:49 30° 71° (ENE) 10:31:35 437.445
50 SAT 03 Mar 10:26:33 10:28:47 15° 92° (E) 10:31:10 437.505
CANX-2 03 Mar 10:28:28 10:31:42 21° 291° (WNW) 10:34:50 2200.000
TIGRISAT 03 Mar 10:28:43 10:33:09 83° 79° (E) 10:37:30 435.000
VELOX 1 03 Mar 10:30:10 10:33:11 18° 92° (E) 10:36:19 145.980
FUNcube-1 03 Mar 10:34:39 10:38:44 56° 100° (E) 10:42:50 145.935
HUMSAT D 03 Mar 10:34:54 10:38:28 28° 96° (E) 10:42:04 437.325/437.525
DUCHIFAT 1 03 Mar 10:35:03 10:39:13 53° 74° (ENE) 10:43:24 145.980
ZACube-1 03 Mar 10:36:07 10:40:13 60° 100° (E) 10:44:21 437.345
UKube-1 03 Mar 10:42:43 10:47:03 62° 102° (ESE) 10:51:20 .
ANTELSAT 03 Mar 10:42:44 10:47:08 66° 259° (W) 10:51:27 437.575/2403.000
BRITE-PL 03 Mar 10:45:28 10:46:49 11° 297° (WNW) 10:47:54 437.365/2234.400
ISS 03 Mar 10:45:37 10:47:56 18° 338° (NNW) 10:50:12 145.825
GOMX 1 03 Mar 10:45:54 10:48:27 15° 294° (WNW) 10:50:46 467.674
CUTE 1.7 + AOD 2 03 Mar 10:47:40 10:50:07 15° 293° (WNW) 10:52:24 437.475
ESTCUBE 1 03 Mar 10:48:35 10:50:55 14° 90° (E) 10:53:28 437.505/2401.250
O/OREOS (USA 219) 03 Mar 10:52:58 10:56:25 20° 304° (WNW) 10:59:46 437.305
POLYITAN 1 03 Mar 10:55:53 11:00:12 85° 257° (WSW) 11:04:30 437.675
POPSAT HIP 1 03 Mar 10:56:04 11:00:22 86° 257° (WSW) 11:04:41 437.405
DELFI C3 03 Mar 10:56:24 11:00:19 44° 286° (WNW) 11:04:12 145.870
UWE-3 03 Mar 10:56:44 11:00:51 61° 285° (WNW) 11:04:57 435.000/436.395/437.385
SO-50 03 Mar 11:07:55 11:12:53 79° 240° (WSW) 11:17:48 436.795
RS-15 03 Mar 11:08:32 11:17:21 24° 256° (WSW) 11:25:48 29.354- 29.394
CUSAT 1 03 Mar 11:12:16 11:14:42 36° 78° (ENE) 11:17:14 437.405
GONETS M04 03 Mar 11:18:29 11:25:13 24° 277° (W) 11:31:37
NANOSAT C BR1 03 Mar 11:19:15 11:23:23 45° 261° (W) 11:27:30 145.865
CINEMA 3 03 Mar 11:20:42 11:23:20 16° 293° (WNW) 11:25:49 145.822/145.860
Oscar 11 03 Mar 11:25:39 11:28:48 19° 292° (WNW) 11:31:50 145.826/435.025
CUBEBUG 2 03 Mar 11:36:37 11:39:35 19° 292° (WNW) 11:42:27 437.445
HO-68 03 Mar 11:42:18 11:46:19 15° 304° (NW) 11:49:59 435.675
UNISAT 6 03 Mar 11:42:48 11:45:27 15° 269° (W) 11:47:53 437.425
DX 1 03 Mar 11:50:47 11:54:15 23° 292° (WNW) 11:57:36 434.975-435.025
QB50P1 03 Mar 11:53:29 11:56:39 19° 267° (W) 11:59:44 145.935-145.965
AISAT 03 Mar 11:56:30 12:00:47 46° 287° (WNW) 12:05:00 437.250
CUBEBUG 1 03 Mar 11:57:30 12:01:56 76° 101° (E) 12:06:19 437.445
QB50P2 03 Mar 11:57:52 12:00:49 17° 268° (W) 12:03:36 145.880/145.840
BUGSAT 1 03 Mar 11:59:59 12:03:21 22° 266° (W) 12:06:39 437.445
50 SAT 03 Mar 12:00:20 12:03:59 36° 287° (WNW) 12:07:37 437.505
VELOX 1 03 Mar 12:05:49 12:09:57 38° 288° (WNW) 12:14:01 145.980
HUMSAT D 03 Mar 12:10:57 12:14:08 21° 291° (WNW) 12:17:12 437.325/437.525
FUNcube-1 03 Mar 12:13:05 12:14:41 12° 294° (WNW) 12:16:04 145.935
DUCHIFAT 1 03 Mar 12:13:35 12:15:27 12° 270° (W) 12:17:06 145.980
ZACube-1 03 Mar 12:14:51 12:16:11 11° 295° (WNW) 12:17:17 437.345
UKube-1 03 Mar 12:20:56 12:22:44 12° 296° (WNW) 12:24:20 .
ESTCUBE 1 03 Mar 12:23:44 12:28:10 51° 287° (WNW) 12:32:34 437.505/2401.250
SPROUT 03 Mar 12:27:11 12:31:12 38° 97° (E) 12:35:12 437.525
TISAT 1 03 Mar 12:28:42 12:32:34 35° 97° (E) 12:36:26 437.305
DANDE 03 Mar 12:30:27 12:31:51 13° 267° (W) 12:33:10 436.750
Gurwin Techsat 1B 03 Mar 12:46:20 12:47:01 10° 60° (ENE) 12:48:02 435.225
ITUPSAT 1 03 Mar 13:03:20 13:05:21 13° 89° (E) 13:07:38 437.325
Oscar 19 03 Mar 13:05:00 13:10:03 63° 74° (ENE) 13:15:09 437.125/150
ITAMSAT 1 03 Mar 13:06:17 13:10:11 22° 66° (ENE) 13:14:14 435.822/435.867
CUBEBUG 1 03 Mar 13:37:07 13:37:45 10° 297° (WNW) 13:38:07 437.445
ISS 03 Mar 14:01:06 14:02:57 14° 18° (NNE) 14:04:49 145.825
SWISSCUBE 03 Mar 14:02:35 14:07:23 61° 101° (E) 14:12:08 437.505
SPROUT 03 Mar 14:04:06 14:07:02 18° 293° (WNW) 14:09:50 437.525
TISAT 1 03 Mar 14:05:09 14:08:10 19° 292° (WNW) 14:11:02 437.305
BEESAT 03 Mar 14:11:03 14:15:52 69° 102° (ESE) 14:20:39 436.000
KKS-1 03 Mar 14:12:00 14:13:31 12° 89° (E) 14:15:18 437.445
Gurwin Techsat 1B 03 Mar 14:20:57 14:26:15 82° 77° (ENE) 14:31:37 435.225
AO-7 03 Mar 14:27:08 14:33:50 29° 59° (ENE) 14:40:44 29.400- 29.500
ITUPSAT 1 03 Mar 14:38:59 14:43:46 63° 286° (WNW) 14:48:32 437.325
ITAMSAT 1 03 Mar 14:44:28 14:49:26 44° 261° (W) 14:54:26 435.822/435.867
Oscar 19 03 Mar 14:47:05 14:49:56 14° 271° (W) 14:52:31 437.125/150
HORYU 2 03 Mar 15:10:15 15:14:39 67° 75° (ENE) 15:19:03 437.375
JAS-2 03 Mar 15:16:04 15:20:28 25° 64° (ENE) 15:25:24 435.910
ISS 03 Mar 15:36:40 15:39:53 65° 35° (NE) 15:43:06 145.825
SWISSCUBE 03 Mar 15:42:04 15:44:47 15° 296° (WNW) 15:47:17 437.505
KKS-1 03 Mar 15:46:16 15:50:38 58° 286° (WNW) 15:54:59 437.445
STARS 03 Mar 15:50:35 15:54:59 82° 284° (WNW) 15:59:21 437.465
BEESAT 03 Mar 15:50:54 15:53:12 13° 297° (WNW) 15:55:16 436.000
Gurwin Techsat 1B 03 Mar 16:05:17 16:07:00 11° 273° (W) 16:08:20 435.225
YUBILEINY 03 Mar 16:10:49 16:19:12 56° 91° (E) 16:27:44 435.215
M-CUBED/EXP-1 PRIME 03 Mar 16:16:06 16:18:48 16° 98° (E) 16:21:48 437.505
AUBIESAT-1 03 Mar 16:17:31 16:20:00 15° 97° (E) 16:22:46 437.475
AO-7 03 Mar 16:17:51 16:26:08 65° 257° (WSW) 16:34:25 29.400- 29.500
BEESAT 2 03 Mar 16:26:30 16:28:32 14° 110° (ESE) 16:30:47 435.950
Cubesat XI-IV 03 Mar 16:41:17 16:43:55 14° 62° (ENE) 16:46:49 437.490
CUTE-I 03 Mar 16:49:20 16:52:32 17° 63° (ENE) 16:55:59 437.470
VERMONT LUNAR 03 Mar 16:49:37 16:52:22 22° 150° (SSE) 16:55:10 437.305
HORYU 2 03 Mar 16:51:25 16:51:52 10° 272° (W) 16:51:59 437.375
JAS-2 03 Mar 17:00:06 17:05:18 43° 264° (W) 17:11:02 435.910
PHONESAT 2.4 03 Mar 17:00:52 17:02:49 14° 146° (SE) 17:04:52 2401.200-2431.200
MOZHAYETS 4 03 Mar 17:03:53 17:08:20 45° 98° (E) 17:12:48
ISS 03 Mar 17:14:39 17:15:58 12° 230° (SW) 17:17:11 145.825
